Погода в Антверпене

Бельгия     51˚13′12″N   4˚23′46″E
темп.,
°C
ветер,
м/с
пор.,
м/с
влажн.,
%
обл.,
%
осадки,
мм/ч
давл.,
гПа
погр.,
м
5 декабря, сб
сб501:00+2˚юв26815 0.0 990180
04:00+2˚вюв35820 0.0 991157
07:00+3˚юв368533 0.0 993223
10:00+3˚ююв398274 0.0 995652
13:00+5˚ю477148 0.0 996738
16:00+5˚вюв247436 0.0 997290
19:00+4˚юв398118 0.0 998351
22:00+2˚юв39870 0.0 999344
6 декабря, вс
вс601:00+2˚вюв36853 0.0 1000195
04:00+1˚вюв368267 0.0 1000176
07:00+1˚в248383 0.0 1001121
10:00+2˚в2484100 0.0 1001132
13:00+5˚в2374100 0.0 1002243
16:00+4˚ссв2382100 0.0 1001115
19:00+3˚св3682100 0.0 1001204
22:00+2˚ссв3689100 0.0 1001205
7 декабря, пн
пн701:00+2˚ссз2688100 0.0 1000198
04:00+4˚сз2788100 0.0 998240
07:00+4˚зюз3591100 0.4 998127
10:00+5˚з2788100 1.1 997603
13:00+6˚зюз3785100 1.9 998645
16:00+5˚юз4787100 0.6 998367
19:00+6˚юз3783100 1.5 1000644
22:00+4˚ююз4886100 0.2 1001357
8 декабря, вт
вт801:00+3˚юз378294 0.2 1002307
04:00+2˚ююз248483 0.0 1003150
07:00+2˚ю249091 0.0 1004154
10:00+2˚ююв2490100 0.0 1006162
13:00+5˚ю137994 0.0 1007322
16:00+4˚ю118415 0.0 100762
19:00+3˚ю119054 0.0 100922
22:00+2˚ююз119280 0.0 100922
9 декабря, ср
ср901:00+2˚ю129290 0.0 101033
04:00+1˚юз129296 0.0 101049
07:00+1˚ююз129356 0.0 101138
10:00+1˚ю23900 0.0 1012139
13:00+4˚ююз23780 0.0 1011333
16:00+3˚ю11831 0.0 101137
19:00+2˚ююв228835 0.0 101250
22:00+1˚ююв229085 0.0 101270